Velovelo
Português Nederlands 日本語 中文
Español English čeština slovenčina
русский italiano polski norsk
français Deutsch svenska عربي
 
 página anterior
 Enviar a amigos
 Para imprimir
 ---> Marmotte 2007 : class du 2001ème au 3000ème

ClassNomPrénom.Cat.C.Cat..Temps..
2001 MOMERENCY GILBERT E 716 9:43:07
2002 NEWTON CHRIS D 657 9:43:07
2003 KEISSE WILLEM E 717 9:43:08
2004 OVERMAN MAARTEN C 315 9:43:14
2005 PATERLINI VITTORIO D 658 9:43:15
2006 JESPERS JOS G 30 9:43:16
2007 BASTIAENSEN ADRI G 31 9:43:17
2008 BASSO DE MARCH J.LUC E 718 9:43:17
2009 APELLANIZ JON E 719 9:43:18
2010 MC ALLISTER ALEX F 250 9:43:21
2011 TIELEMANS YVES D 659 9:43:22
2012 CASALI ANGELO F 251 9:43:25
2013 LARMIT WILL E 720 9:43:25
2014 CAROEN ERIC E 721 9:43:30
2015 MORET JEROEN D 660 9:43:32
2016 HOFSTEE RENE E 722 9:43:34
2017 DOUBLET YVON E 723 9:43:38
2018 MAZIERE HERVE D 661 9:43:39
2019 REIJERS BIERINGA MARTINE AB 17 9:43:44
2020 DUMONT GERVAIS F 252 9:43:47
2021 KLINKHAMER ALBERT C 316 9:43:50
2022 WAEGEMAN BART C 317 9:44:01
2023 DAVIS MICHAEL E 724 9:44:11
2024 HERMS STAN E 725 9:44:14
2025 VAN LEEUWEN JUDITH A 10 9:44:17
2026 GIANESIN ANTONIO D 662 9:44:17
2027 BRUET THIERRY E 726 9:44:18
2028 NIEMANTSVERDRIET THIJS C 318 9:44:19
2029 ZAPPE SVEN C 319 9:44:32
2030 SCHRA KLAAS E 727 9:44:33
2031 HAAST INGRID A 11 9:44:37
2032 GILLES FRANCOIS E 728 9:44:38
2033 BECH MORTEN E 729 9:44:47
2034 GROOTEN JEROEN C 320 9:44:48
2035 WIND HENK E 730 9:44:50
2036 DIRKX RON D 663 9:44:56
2037 SLINGERLAND RICHARD D 664 9:44:56
2038 JURADO FRANCISCO VICENTE D 665 9:44:59
2039 CANGIANO CHRISTOPHE D 666 9:45:06
2040 BRINLUNANN JOSEPH F 253 9:45:15
2041 FLAMELING HIJKE E 731 9:45:15
2042 BROGAARD HENNING F 254 9:45:16
2043 LABOTS DIEDE C 321 9:45:17
2044 JIMENEZ CARPIO JOSE JAVIER D 667 9:45:20
2045 COLOMER LOPEZ TXEMA D 668 9:45:23
2046 PAULIEN BRUNO E 732 9:45:31
2047 DE GROOT BERT E 733 9:45:34
2048 TOSCO TRISTAN E 734 9:45:38
2049 VAN DEN BOS ERIK D 669 9:45:43
2050 SCHOENMAKER BART C 322 9:45:55
2051 DEMARCHE LEOPOLD G 32 9:45:56
2052 VERBRUGGEN WIM D 670 9:46:06
2053 TAGHON JOHAN E 735 9:46:16
2054 HANSEN MICHAEL E 736 9:46:17
2055 BAUDART ERIC E 737 9:46:27
2056 RINALDI MARCO E 738 9:46:32
2057 ETSUO KOMINE F 255 9:46:36
2058 CHAPUS YVAN F 256 9:46:36
2059 VERSTEEG TIM D 671 9:46:37
2060 WENNEKES ROEL E 739 9:46:39
2061 DOCTER JEROEN J 9 9:46:41
2062 BEAUFILS SERGE D 672 9:46:43
2063 JONKER DANIEL D 673 9:46:47
2064 BETTELLI MAURIZIO E 740 9:46:51
2065 FISH MICHAEL E 741 9:46:51
2066 VERHEYEN FRANK D 674 9:46:56
2067 SZYMOCHA JEAN MARIE F 257 9:46:56
2068 LEIJTEN JORGEN D 675 9:46:57
2069 JANSSEN HAROLD D 676 9:47:00
2070 ENDERLE BASTIEN D 677 9:47:01
2071 HOOGTEIJLING KEES E 742 9:47:04
2072 MOLAG ARJEN C 323 9:47:05
2073 SANTA CRUZ MORALES GONZALO C 324 9:47:11
2074 HANSEN PREBEN D 678 9:47:12
2075 LUJAN CANO ROSA A 12 9:47:12
2076 RUIJTERS CHRIS E 743 9:47:14
2077 DELALLEAU BENOIT C 325 9:47:15
2078 WEST LEIGH D 679 9:47:16
2079 DELEAU DANNY F 258 9:47:19
2080 NAVARRO ANDRES D 680 9:47:22
2081 VENSELAAR MAARTEN C 326 9:47:24
2082 KRATZER ROBERT D 681 9:47:24
2083 VAN TRIEST COR D 682 9:47:26
2084 LAUGS JOZEF G 33 9:47:33
2085 OGAMI KENJI E 744 9:47:34
2086 CRAENINCKX TOM D 683 9:47:36
2087 NIELSEN FRANK E 745 9:47:37
2088 BRISAERT IVO C 327 9:47:41
2089 DRIES STEFAN D 684 9:47:42
2090 GREGORIO FABIO D 685 9:47:47
2091 SMITH GRAHAM E 746 9:47:48
2092 RENIERS KRISOF D 686 9:47:53
2093 SPEDICATO FELICE D 687 9:47:57
2094 BERTH CARSTEN D 688 9:48:01
2095 HENDRIKX MAURITS D 689 9:48:03
2096 GREGORY RORY F 259 9:48:05
2097 LAURENCE TACO E 747 9:48:06
2098 OLSTHOORN RAYMOND D 690 9:48:12
2099 LITTLE PATRICK D 691 9:48:13
2100 JUSTER CHRIS D 692 9:48:17
2101 STEIJN MARCO D 693 9:48:19
2102 HUIZINGA ELTJO E 748 9:48:21
2103 KIERKELS RENE F 260 9:48:32
2104 JONES JOHN E 749 9:48:35
2105 BIESHEUVEL MAARTEN D 694 9:48:37
2106 VAN SCHANDEVYL HANS E 750 9:48:39
2107 BOURDEAU YVAN G 34 9:48:44
2108 VAN DER ELST JAN F 261 9:48:44
2109 VINCKX KEVIN C 328 9:48:49
2110 BEDOGNE EMILIO C 329 9:48:51
2111 FIEGE ROLAND D 695 9:48:58
2112 ARCHER STEVE D 696 9:49:00
2113 MIGNON JACQUES D 697 9:49:01
2114 FRIEDMANN THIERRY E 751 9:49:02
2115 CARAVACA GUIJARRO ANTONIO E 752 9:49:03
2116 TOOLENAAR TOON F 262 9:49:17
2117 DEN ENGELSE PETER F 263 9:49:28
2118 NIELENS HENRI F 264 9:49:30
2119 BLAIR ALLEN E 753 9:49:38
2120 HASSELBALCH STEEN D 698 9:49:43
2121 MATAGNE MICHEL VICTOR E 754 9:49:44
2122 KOFOED JENSEN FINN F 265 9:49:47
2123 ANDRIES PETER D 699 9:49:49
2124 MEYVIS LEO D 700 9:49:52
2125 GOUW RON E 755 9:50:00
2126 RUGGERI PAOLO D 701 9:50:04
2127 ISEPPI MAURIZIO D 702 9:50:04
2128 VAN RANSBEECK CARL E 756 9:50:08
2129 LYSTAGER HENRIK E 757 9:50:10
2130 GORNALL ROBERT E 758 9:50:18
2131 WENTINK AP F 266 9:50:20
2132 VELDHUIZEN WILLEM E 759 9:50:22
2133 FERRIDAY RICHARD D 703 9:50:25
2134 CASBURN GARETH C 330 9:50:28
2135 BALK KEVIN C 331 9:50:32
2136 BECAM JEAN-YVES F 267 9:50:33
2137 COSTA LAFARGA MANUEL F 268 9:50:39
2138 DAWKINS RUSSELL E 760 9:50:42
2139 CHARREYRE DENIS E 761 9:50:47
2140 GLADINES SVEN D 704 9:50:53
2141 HENSELMANS SJORS D 705 9:50:55
2142 BELINCHON OSCAR D 706 9:50:57
2143 VAN ELST BART F 269 9:51:02
2144 VAN DER KNAAP RENE E 762 9:51:03
2145 GARAYT FABRICE D 707 9:51:07
2146 PIETERS DRIES C 332 9:51:10
2147 VERLINDE LUC ANDRE E 763 9:51:16
2148 SCARABOTTA CLAUDIO E 764 9:51:18
2149 CAMPOS PEREZ SALVADOR E 765 9:51:22
2150 DEWIT CEDRIC C 333 9:51:25
2151 PIHL LEONHARDT E 766 9:51:25
2152 DE SWART JACOBUS D 708 9:51:27
2153 VEGA IBANEZ RAMON E 767 9:51:28
2154 GARBO PAOLO E 768 9:51:30
2155 AUNSTRUP KJELD E 769 9:51:34
2156 MCKEOWN PHILIP E 770 9:51:52
2157 PITTARELLO J.PAUL F 270 9:52:04
2158 MALAGON ALBERTO C 334 9:52:12
2159 BAROJA GLZ DE VINASPRE RAUL C 335 9:52:18
2160 LEMOINE PIERRE E 771 9:52:24
2161 VAN DEN BROEK MICHEL D 709 9:52:24
2162 BEAUFOUR FABIEN E 772 9:52:29
2163 SCHATTEMAN BRACKE KRIS D 710 9:52:29
2164 ARAGON DAVID D 711 9:52:32
2165 AMORRORTU JABIER E 773 9:52:46
2166 MORANDI LORENZO F 271 9:52:52
2167 KAPPERT ARD D 712 9:52:56
2168 SAENZ ALBERTO F 272 9:52:58
2169 GALLART TORRAS JOAN CARLES E 774 9:53:00
2170 DE KOOTER ARNOUD D 713 9:53:01
2171 SAN JUAN GUARDIOLA JOSE D 714 9:53:07
2172 VAN RIJSWIJK WIM F 273 9:53:10
2173 CASH REBECCA A 13 9:53:11
2174 BOOM ARNE C 336 9:53:16
2175 JACOBS FRANK E 775 9:53:26
2176 TARTELIN LIONEL E 776 9:53:33
2177 VAN ALEBEEK FRANS F 274 9:53:34
2178 VAN DE MORTEL ERIK E 777 9:53:40
2179 DEREZE MARC F 275 9:53:46
2180 MAISON ALAIN F 276 9:53:53
2181 VAN EETEN STEPHAN D 715 9:53:54
2182 DE HARTOG LEO F 277 9:53:55
2183 MACCHIONI CLAUDIO E 778 9:54:02
2184 LANFRANCHI SEBASTIEN D 716 9:54:05
2185 VRIESENDORP MAARTEN D 717 9:54:06
2186 PICKARD ALASTAIR E 779 9:54:08
2187 PRINSSEN WIM G 35 9:54:13
2188 AMADESSI LUCA C 337 9:54:23
2189 KIRY SYLVESTRE D 718 9:54:26
2190 HALLIDAY ALAN D 719 9:54:28
2191 LAGUIA APIO JUAN CARLOS D 720 9:54:35
2192 FRANKLIN NIGEL E 780 9:54:38
2193 PRINCE DORENDA AB 18 9:54:39
2194 CARTER MATTHEW D 721 9:54:39
2195 BOURGEOIS JACKY F 278 9:54:40
2196 NOORDIJK AB F 279 9:54:47
2197 WEBER GUY E 781 9:54:52
2198 GOMEZ REVILLA FRANCISCO E 782 9:55:05
2199 GRON THOMAS D 722 9:55:11
2200 SIVADE SERGE E 783 9:55:14
2201 DE VEGA RIVAS HONORIO F 280 9:55:18
2202 LUTTEROP JUR D 723 9:55:20
2203 PEREZ ROVIRA JOSE LUIS D 724 9:55:21
2204 SMIT MARTIJN D 725 9:55:23
2205 PANCHYK DIANA A 14 9:55:23
2206 ASTIGARRAGA ENRIQUE E 784 9:55:36
2207 APICELLA FRANCOIS E 785 9:55:37
2208 MASSAGUE ANTONI D 726 9:55:39
2209 GUIBON YANNICK D 727 9:55:40
2210 LANDBRUG RICARDO E 786 9:55:41
2211 ELORZA GORKA D 728 9:55:42
2212 VANCUTSEM JOEL E 787 9:55:44
2213 BOLLYN FREDDY F 281 9:55:48
2214 VIS PETER C 338 9:55:48
2215 COMPTE PHILIPPE D 729 9:55:57
2216 GARCIA FERMOSEL MANUEL ANTONIO F 282 9:55:57
2217 HOOLEY MARK E 788 9:55:58
2218 PEINADO IZQUIERDO SANTIAGO E 789 9:56:00
2219 RONDONNEAU DANIEL F 283 9:56:06
2220 LOOIJEN WILGO C 339 9:56:08
2221 GASKELL STEPHEN F 284 9:56:10
2222 COATES PETER E 790 9:56:11
2223 LIETARD LAURENT D 730 9:56:12
2224 TACCINI PIER LUIGI E 791 9:56:18
2225 BOND LAURENCE E 792 9:56:25
2226 PYLYSER IVAN F 285 9:56:27
2227 CRIST PHILIPPE E 793 9:56:33
2228 VAN DEN BORRE GEOFFREY C 340 9:56:36
2229 VAN DEN BORRE PATRICK E 794 9:56:36
2230 CHAZAL PHILIPPE E 795 9:56:36
2231 VAN VONDEREN DENNIS D 731 9:56:46
2232 WAGNER ARMIN E 796 9:56:47
2233 VAN TOOR MARNIX D 732 9:56:51
2234 CAPOROSSI LAURENT D 733 9:57:03
2235 LIEFTINK HENK D 734 9:57:09
2236 LEBBE JAN C 341 9:57:15
2237 HARTOG JOOST F 286 9:57:16
2238 HOUTTEMAN RENZO D 735 9:57:17
2239 BOUCHET JULIAN D 736 9:57:26
2240 LATTO PHILIP E 797 9:57:27
2241 GUEE MICHEL F 287 9:57:29
2242 LOPEZ PEREZ ANDRES D 737 9:57:33
2243 STORM MICHIEL C 342 9:57:46
2244 FLECHET MARTINE AB 19 9:57:46
2245 VANDUYNSLAEGER PATRICK E 798 9:57:55
2246 DE HERTOG PHILIPPE D 738 9:57:57
2247 BOUWMEESTER WALTER C 343 9:57:59
2248 KRISTIANSEN ARNE F 288 9:58:07
2249 MADSEN ANDERS JESS D 739 9:58:13
2250 MALSERT PASCAL D 740 9:58:14
2251 HUNTER DAVID E 799 9:58:18
2252 CHAMBONNIERE JEAN-CLAUDE G 36 9:58:23
2253 DOEVEN LUDI E 800 9:58:26
2254 PROVAAS LUC D 741 9:58:27
2255 GUILLON GERARD G 37 9:58:30
2256 NATER L E 801 9:58:34
2257 SEVILLANO BENITO FRANCISCO JAVIER E 802 9:58:39
2258 SPENCER STUART E 803 9:58:39
2259 WILKINSON BRUNO E 804 9:58:41
2260 PEYNET HENRI E 805 9:58:42
2261 BOUCHER BENOIT C 344 9:58:46
2262 BELL JAMES E 806 9:58:54
2263 ARGILES CARLOS E 807 9:58:57
2264 GIULIANI PANFILO F 289 9:59:00
2265 BROERS BERNARD D 742 9:59:12
2266 AMOUROUX GUY G 38 9:59:12
2267 HOLE STEVEN E 808 9:59:15
2268 MARTIN PHILIPPE E 809 9:59:21
2269 SKOTT PREBEN E 810 9:59:23
2270 CREUZENET SERGE E 811 9:59:40
2271 LIBORIUS BJARNE E 812 9:59:43
2272 VAN DER VELDEN ABRAHAM E 813 9:59:58
2273 HENK AALBERS D 743 10:00:00
2274 BARNARD JULIAN E 814 10:00:01
2275 LEROT BERTRAND F 290 10:00:10
2276 ANDRINGA MARK E 815 10:00:14
2277 BOURSETTE LAURENT D 744 10:00:20
2278 ARRIZABALAGA ORMAECHEA JORGE E 816 10:00:22
2279 MADSEN BJARNE E 817 10:00:24
2280 VAN DIEVEL DANIEL E 818 10:00:26
2281 PIGGOTT ALUN E 819 10:00:27
2282 REYNAUD CHRISTOPHE D 745 10:00:27
2283 THOMAS J.LUC F 291 10:00:28
2284 DELVA BRUNO E 820 10:00:35
2285 VAN PANHUIS HENRY C 345 10:00:37
2286 HERBER TIMME C 346 10:00:41
2287 DROOG ANDRE E 821 10:00:51
2288 BOONEN TOM E 822 10:00:54
2289 MIRANDA DIDIER E 823 10:00:57
2290 INVERNIZZI ROBERTO D 746 10:01:02
2291 ALFIERI CLAUDIO F 292 10:01:02
2292 CERVERO MARCO JOSE E 824 10:01:07
2293 FABRA PALAO JOSE C 347 10:01:07
2294 NEKOTXEA ANTON F 293 10:01:12
2295 VROONHOF JOOST D 747 10:01:16
2296 METAIS ROBERT F 294 10:01:17
2297 FABRA CARRERO JOSE E 825 10:01:27
2298 CAMPBELL MARK E 826 10:01:28
2299 MEESTERS ANTONIUS E 827 10:01:36
2300 HARTMAN WILLEM G 39 10:01:37
2301 MARTIN STEFAN E 828 10:01:45
2302 MONIN FREDERIC E 829 10:01:48
2303 NEVEU JEAN MARC E 830 10:01:50
2304 AGASSE GILLES F 295 10:01:51
2305 QUAADGRAS HANS F 296 10:01:54
2306 GARCIA JOSE D 748 10:02:04
2307 CAMPOS MIGUEL ANGEL D 749 10:02:06
2308 VANDEVOORDE DIRK E 831 10:02:06
2309 WASTIELS LUCIEN F 297 10:02:07
2310 MARTIN MICHEL G 40 10:02:13
2311 DEVER JAN C 348 10:02:26
2312 BERNS MARCEL E 832 10:02:27
2313 LANGHAMMER JOHANNES E 833 10:02:29
2314 BURNS MICHAEL E 834 10:02:31
2315 VEEN ROBERT E 835 10:02:36
2316 PEREZ FRANSISCO G 41 10:02:36
2317 VAN GINKEL PETER E 836 10:02:36
2318 DAUWE FILIP D 750 10:02:40
2319 DERUFFE ALAIN F 298 10:02:47
2320 REIMER PETER G 42 10:02:52
2321 HAAR JOHNNY D 751 10:03:01
2322 OSTERBY JORGEN F 299 10:03:04
2323 MALFLIET BOB D 752 10:03:04
2324 LEAKE CHRIS D 753 10:03:07
2325 DEMOULIN CHARLES F 300 10:03:11
2326 DJELLAB ALAIN F 301 10:03:12
2327 FERRARI GIANNI E 837 10:03:19
2328 DIRICX BART D 754 10:03:20
2329 WIEMANS EELCO C 349 10:03:20
2330 BEAUDON GILLES E 838 10:03:22
2331 EVREUX DOMINIQUE E 839 10:03:23
2332 VAN WYLICK BERT E 840 10:03:26
2333 SERRA BAUSILI JOAQUIM E 841 10:03:29
2334 JANSSENS JEF F 302 10:03:39
2335 OLSTHOORN NIEK E 842 10:03:40
2336 KOEDAM ERWIN C 350 10:03:42
2337 VAN MALDEREN GEERT E 843 10:03:45
2338 ROSSELS GUY E 844 10:03:49
2339 TITTERTON STEVE F 303 10:03:54
2340 ROMIJN PAUL D 755 10:03:56
2341 DE VRIES ERWIN D 756 10:03:59
2342 ERNST RAINER E 845 10:04:03
2343 WATTON SIMON D 757 10:04:04
2344 MORDACQ GUILLAUME F 304 10:04:11
2345 SPOON RINUS E 846 10:04:17
2346 GOEMAERE ERIC G 43 10:04:19
2347 ROOS GERT D 758 10:04:23
2348 BIRKLUND KJELD F 305 10:04:24
2349 DESMET PASCAL D 759 10:04:32
2350 GOEDEGEBUURE SIMON D 760 10:04:34
2351 VAN DER MEER CEES E 847 10:04:43
2352 VAN ROEYEN DIRK F 306 10:04:48
2353 PAPOT SYLVAIN C 351 10:04:49
2354 MARTINEZ FERNANDO E 848 10:04:51
2355 TER VEEN AGE C 352 10:04:57
2356 DELEVITA DANIEL D 761 10:05:03
2357 DAMIANO ANGELO E 849 10:05:04
2358 BRUN YVES D 762 10:05:07
2359 SACHERS DAVY C 353 10:05:14
2360 VAN DER LINDEN PETER E 850 10:05:15
2361 FERNANDEZ PEREZ FERNANDO E 851 10:05:15
2362 CALLADINE PAUL C 354 10:05:17
2363 KERSHAW MIKE E 852 10:05:24
2364 COLE MARK D 763 10:05:27
2365 PLASMAN TIM C 355 10:05:32
2366 BAX HESTER A 15 10:05:35
2367 JERAS DICK F 307 10:05:37
2368 VAN DAMME HILAIRE F 308 10:05:42
2369 BRAMATI LUCA D 764 10:05:48
2370 ZAMBONI VALERIO F 309 10:05:48
2371 REINS WIM E 853 10:05:48
2372 STROOMER JAN D 765 10:05:50
2373 SOETEMANS MARC E 854 10:05:51
2374 DODION MICHEL E 855 10:05:54
2375 WENGLER GUY G 44 10:05:57
2376 VALETTE YVES F 310 10:06:08
2377 DEPEISSES FABRICE D 766 10:06:09
2378 BUXTON ANDREW E 856 10:06:15
2379 CHRISTENSEN KENNETH E 857 10:06:18
2380 GOETHALS NICK C 356 10:06:32
2381 HULSHOF EGGIE E 858 10:06:33
2382 DUPUIS PATRICK E 859 10:06:34
2383 MICHEL GEORGES G 45 10:06:36
2384 BAARDA ALBERT E 860 10:06:36
2385 SIMPSON PETER D 767 10:06:39
2386 POYET ERIC D 768 10:06:48
2387 GOROSTIZA IRASTORZA PATXI E 861 10:06:53
2388 WIDART DOMINIQUE F 311 10:06:59
2389 POPPE TOM D 769 10:07:01
2390 KEMPS ROLAND F 312 10:07:02
2391 VAN SCHAIJK MARION A 16 10:07:13
2392 SALLE EDOUARD E 862 10:07:15
2393 ROBERTS DAVID D 770 10:07:18
2394 LITHERLAND JOHN E 863 10:07:20
2395 SPENCE JEFF E 864 10:07:21
2396 AMENOS NAVARRO XAVIER J 10 10:07:22
2397 DE CANCK DANIEL F 313 10:07:49
2398 GAETAN ROLAND E 865 10:07:51
2399 MAGGUILLI JEAN LUC D 771 10:07:54
2400 HOUDANT BENOIT D 772 10:07:56
2401 DE COSTER IGNACE D 773 10:08:04
2402 MORRIS PAUL E 866 10:08:04
2403 BENARD RICHARD E 867 10:08:05
2404 KERRISON ROGER F 314 10:08:11
2405 SWINKELS WILLIAM E 868 10:08:13
2406 JOSSERAND JEROME E 869 10:08:13
2407 RAYNAUD MARTIAL E 870 10:08:15
2408 DE HAAS JOHAN E 871 10:08:15
2409 BURGESS PAUL E 872 10:08:17
2410 VAN DER WAAL STEFAN D 774 10:08:21
2411 DEPROUW HERMAN E 873 10:08:26
2412 TROELESEN HANS JORGEN E 874 10:08:34
2413 OLSEN THEIS LANGE C 357 10:08:35
2414 BEAUVE JACQUES D 775 10:08:36
2415 WALENKAMP ANNEMIEK AB 20 10:08:47
2416 VAN STRALEN WARD D 776 10:08:51
2417 VAN STRALEN GIEL D 777 10:08:52
2418 ZUCALLI HERVE E 875 10:09:05
2419 VANTORRE RIK E 876 10:09:05
2420 HALE CHRIS D 778 10:09:06
2421 BERNAZ YVES E 877 10:09:13
2422 MENDAZONA PEDRO E 878 10:09:18
2423 VAN DE VELDE JAN WILLEM C 358 10:09:23
2424 GOEDHART MARTIJN C 359 10:09:37
2425 KALIS KEES F 315 10:09:43
2426 SCLOSA GIANNI F 316 10:09:44
2427 JOBSIS JASPER D 779 10:09:59
2428 VAN HENSEN VAN UNINGEN RENE E 879 10:10:04
2429 THEUNISSEN ROBERT D 780 10:10:05
2430 BERENDSEN MARK D 781 10:10:07
2431 LANGERES NICO F 317 10:10:12
2432 ROWLES JOHN D 782 10:10:14
2433 LA GRO ENEE E 880 10:10:18
2434 ADELINE BRUNO D 783 10:10:21
2435 TE BOEKHORST WIL F 318 10:10:23
2436 PELLEGRIN JEAN LUC F 319 10:10:29
2437 ZAAL ELLEMIEKE AB 21 10:10:33
2438 URDANGARIN AGIRRE IBAN C 360 10:10:44
2439 SLANGEN RALF D 784 10:10:49
2440 KONINCKX GLEEN C 361 10:10:49
2441 RENARD MICHEL G 46 10:10:51
2442 VAN DER PUTT PIETER E 881 10:10:52
2443 ORWIN JOHN G 47 10:10:56
2444 VAN DAMME JOZEF F 320 10:10:57
2445 OWEN DAVID E 882 10:10:58
2446 SCHIMMEL MAARTEN C 362 10:10:59
2447 DUPONT ERIC D 785 10:11:12
2448 ALKORTA ELU INIGO D 786 10:11:23
2449 HAVERMANS LEON E 883 10:11:23
2450 BARTOCHA DARIUSZ E 884 10:11:24
2451 COUSINS JONATHAN D 787 10:11:30
2452 VAN HOLSTEIJN JOERI C 363 10:11:34
2453 RODRIGUEZ DOMINGUEZ FRANCISCO DANIEL E 885 10:11:35
2454 RUTTER RUUD F 321 10:11:42
2455 BOECKEM BURKHARD D 788 10:11:48
2456 BAILEY TIM D 789 10:11:52
2457 MEERT WIM D 790 10:11:57
2458 AZALDEGI MUJIKA INIGO D 791 10:12:20
2459 LIEBAUT JEAN PIERRE G 48 10:12:33
2460 VAN DEN HEUVEL JOHN E 886 10:12:42
2461 KONST WALTER D 792 10:12:49
2462 BATTISTI ERIC E 887 10:12:59
2463 GRAAFLAND HILTJO E 888 10:13:00
2464 BLESKY HENRIK E 889 10:13:03
2465 HUTS THIERRY D 793 10:13:04
2466 MADSEN CHARLES RENE D 794 10:13:07
2467 WAEGEMAKERS JOS F 322 10:13:10
2468 MORRIS GERAINT D 795 10:13:13
2469 PRINSSEN WILLEM D 796 10:13:13
2470 URBANIK GRZEGORZ C 364 10:13:15
2471 NURIT JEAN FRANCOIS F 323 10:13:16
2472 RYLAND LORENZ D 797 10:13:17
2473 CHRISTENSEN JENS PETER E 890 10:13:18
2474 RUYMEN RONALD E 891 10:13:19
2475 MICO TARAZONA MIGUEL E 892 10:13:20
2476 PERRIN J.CHARLES E 893 10:13:32
2477 BREEDVELD SANDER D 798 10:13:35
2478 SCHOONJANS STEPHANE E 894 10:13:47
2479 TUCKWELL COLIN D 799 10:13:58
2480 JILESEN TONY G 49 10:13:59
2481 HARTMAN JAN F 324 10:14:00
2482 GLEZ FREDERIC C 365 10:14:02
2483 AUBEL MARC D 800 10:14:04
2484 VAN DER GOES FRANK E 895 10:14:10
2485 THEUNISSEN ERIK E 896 10:14:11
2486 ARKAITZ URDANGARIN C 366 10:14:20
2487 AITOR ARZA D 801 10:14:21
2488 THUREAU GISELE B 1 10:14:22
2489 BISON GIANLUCA E 897 10:14:23
2490 MUNOA LANDER D 802 10:14:23
2491 DE VRIESE PATRICK E 898 10:14:28
2492 GAMBLE EDWARD E 899 10:14:30
2493 BROWNING DEAN E 900 10:14:34
2494 NULTY MICK F 325 10:14:35
2495 ARGUEL BERNARD G 50 10:14:36
2496 VAN EIJK MICHEL E 901 10:14:39
2497 ALTALAGUERRI DUBAL JOSE F 326 10:14:39
2498 QUISPEL RUTGER D 803 10:14:41
2499 VANTHOMME BART D 804 10:14:41
2500 GARUZ JEAN LOUIS F 327 10:14:42
2501 POLI ALBERTO E 902 10:14:42
2502 LUGGERI CARMELO F 328 10:14:45
2503 LERCHE NIELSEN STEFFEN E 903 10:14:49
2504 SULLIVAN DAVID D 805 10:14:50
2505 VOCHTEN PETER C 367 10:14:56
2506 GIBAULT JEAN PHILIPPE F 329 10:15:01
2507 PECHIN JULIEN C 368 10:15:07
2508 VAN DEN BERG JAN WILLEM C 369 10:15:14
2509 STEUR RON D 806 10:15:23
2510 FORTE DANIEL G 51 10:15:24
2511 GRUM SCHWENSEN ANDERS D 807 10:15:25
2512 FABRA CARRERO FRANCISCO F 330 10:15:27
2513 KIEKENS KRISTOF C 370 10:15:30
2514 DE BRUYN HANS D 808 10:15:30
2515 DE LA LAMA ANTTON D 809 10:15:31
2516 ALABAU VAZQUEZ JOSE LUIS F 331 10:15:34
2517 GONZALEZ MARTINEZ BERNARDO E 904 10:15:43
2518 PICARD FREDDY E 905 10:15:45
2519 LESCURE FREDERIC D 810 10:15:47
2520 TONI DANIELE E 906 10:15:48
2521 SCHMIDT JORRIT D 811 10:15:54
2522 TREBBI LUCIANO E 907 10:15:54
2523 DIXON DAVID E 908 10:16:06
2524 ALS THOMSEN JACOB D 812 10:16:08
2525 GOITANDIA FERNADEZ ISMAEL E 909 10:16:09
2526 RICHARD BERNARD F 332 10:16:21
2527 DUNNE MICHAEL E 910 10:16:30
2528 PYLYSER STEFAAN D 813 10:16:34
2529 JONES KELVYN E 911 10:16:42
2530 BURT COLIN E 912 10:16:46
2531 MANUCCI MIGUEL C 371 10:16:54
2532 VAN DUN DAVE D 814 10:16:54
2533 JAUREGUI LAZCANO XABIER D 815 10:16:54
2534 DIJKHUIZEN JEROEN E 913 10:16:57
2535 DUFFHUES PETER J 11 10:17:06
2536 BATTEAUW PHILIPPE F 333 10:17:07
2537 COLE ROBERT D 816 10:17:21
2538 JORNA TAMMINGA PAUL D 817 10:17:33
2539 CHENU ARMEL F 334 10:17:35
2540 HERTOGS MARC E 914 10:17:44
2541 VENNIK NICO E 915 10:17:45
2542 ROZEC JEAN NOEL E 916 10:17:53
2543 CARSANA FREDERIC C 372 10:17:56
2544 VALKS MARTI B 2 10:18:05
2545 VAN TROTSENBURG LOUIS E 917 10:18:10
2546 OERLEMANS ARIEN E 918 10:18:12
2547 RAMON CRESPI DEVESA D 818 10:18:20
2548 PUGET PIERRE E 919 10:18:20
2549 RAFAEL CECILIA BERMUNDEZ E 920 10:18:22
2550 KROEZEN KLAAS E 921 10:18:24
2551 FOWKES ALLAN F 335 10:18:24
2552 PENVEN GWENAEL D 819 10:18:25
2553 TJEERDSMA BOKE E 922 10:18:33
2554 TRONEL J.JACQUES F 336 10:18:36
2555 PERNAL KATARZYNA A 17 10:18:36
2556 SCHNEIDER PATRICK E 923 10:18:41
2557 ARTAECHEBARRIA MOISES E 924 10:18:43
2558 VAN DEN BROECK JOSEE AB 22 10:18:48
2559 PETRIE BOB E 925 10:19:00
2560 MALDERA JEAN-FRANÇOIS D 820 10:19:00
2561 EVERETT NEIL C 373 10:19:02
2562 ROMIJN GERT-JAN F 337 10:19:25
2563 SPURGEON WILL E 926 10:19:26
2564 BERNS NIEK E 927 10:19:26
2565 VAN BREMPT BERT D 821 10:19:33
2566 BARBIER PHILIPPE D 822 10:19:36
2567 JORDI MARTINEZ MOLIST D 823 10:19:42
2568 LENDERINK GERHARD D 824 10:19:50
2569 PLUIM ALBERT E 928 10:20:03
2570 VAN DE MOORTELE RUDY E 929 10:20:06
2571 CAMPBELL IAN E 930 10:20:12
2572 WILLIAMS SEAN C 374 10:20:16
2573 AITOR ALZA KAMPANDEGI E 931 10:20:17
2574 GARATE LUIS MARI F 338 10:20:26
2575 VAN HULST KASPAR D 825 10:20:29
2576 VAUDAN PHILIPPE E 932 10:20:29
2577 TUIJT FRANCK C 375 10:20:32
2578 SIMONS RUUD E 933 10:20:39
2579 TORQUEMADA JAVIER D 826 10:20:45
2580 SEVILLANO BENITO ANTONIO JESUS E 934 10:20:51
2581 MEERMAN LEENDERT JAN E 935 10:20:55
2582 BUNN STEPHEN D 827 10:21:01
2583 QUIRK CHARLES KELLY E 936 10:21:12
2584 ZIEKMAN PETER D 828 10:21:14
2585 JOHANSEN SOREN BO E 937 10:21:16
2586 VERHAEGHE LUC E 938 10:21:20
2587 DE HAAN DERK E 939 10:21:23
2588 ODUAART RINNS F 339 10:21:28
2589 BUYSEN YAN F 340 10:21:30
2590 MAY FLORENT D 829 10:21:53
2591 VAN SCHAIK GERBEN C 376 10:22:04
2592 THOMAS VICKY AB 23 10:22:16
2593 WAMMEN ANNETTE AB 24 10:22:21
2594 ARREDI EDOUARD G 52 10:22:30
2595 SCHIPPERS STEVEN C 377 10:22:31
2596 PEPELS HENRIETTE AB 25 10:22:32
2597 VERBEKE WALLY WALTER E 940 10:22:33
2598 JOSEP BURRUECOS MONTEJO C 378 10:22:37
2599 MAMPUYS NIELS C 379 10:22:38
2600 VANCRAENEM GEERT E 941 10:22:39
2601 GILBERT HOWARD F 341 10:22:43
2602 STRAGIER BART E 942 10:22:44
2603 MARTINEZ MARC F 342 10:22:50
2604 SEGUIN ANTOINE C 380 10:22:54
2605 BAKKEREN ARJAN D 830 10:22:58
2606 VERHEECKE CLEMENT JAN E 943 10:22:58
2607 SCHILTZ PIERROT E 944 10:23:10
2608 CLEMENT BRUNO E 945 10:23:15
2609 ARENS ERIC E 946 10:23:23
2610 VAN SOEST MARK C 381 10:23:24
2611 WATSON JOHN F 343 10:23:28
2612 SWAELENS GEERT D 831 10:23:29
2613 GONZALEZ MARCET OSCAR C 382 10:23:31
2614 BRUCKNER ERIC E 947 10:23:32
2615 BANDIERI ROSANNA AB 26 10:23:35
2616 DE VITO GIOVANNI E 948 10:23:39
2617 GERON GHISLAIN J 12 10:23:40
2618 SOEMANTA LISANNE A 18 10:23:49
2619 LEVELINK MARTIN F 344 10:23:56
2620 RIJENHIMIS MICHEL D 832 10:24:01
2621 MOLLER BO E 949 10:24:03
2622 DALM HANS F 345 10:24:10
2623 KORS HENK E 950 10:24:11
2624 SPRONKEN HARRY F 346 10:24:14
2625 DE GEYTER FRANK E 951 10:24:29
2626 SCHITTECATTE PASCAL D 833 10:24:38
2627 LANGENDRIES PATRICK E 952 10:24:46
2628 RAMBAUD DENIS E 953 10:24:57
2629 VERLOOP PIETER C 383 10:24:59
2630 OLSEN SVEND E 954 10:25:00
2631 GRAZZIANO ROBERT F 347 10:25:05
2632 COLOMBO SILVANO E 955 10:25:19
2633 RICHARDSON PETER E 956 10:25:27
2634 FINLAYSON COLIN AB 27 10:25:29
2635 HENDRIKS EMIEL D 834 10:25:29
2636 TUVERI DENIS F 348 10:25:32
2637 MITXELENA JOSEBA C 384 10:25:32
2638 KIPPENBERGER HARALD E 957 10:25:37
2639 VAN EWIJK JACO E 958 10:25:41
2640 PERCHE PATRICE E 959 10:25:46
2641 VAN DONSELAAR WIM E 960 10:25:47
2642 BASTIAANSE GERT- ANTON D 835 10:26:00
2643 ARTIERI FREDERIC D 836 10:26:11
2644 OLAZABAL EIZAGUIRRE ARITZ C 385 10:26:11
2645 ARRUTI JON GOTZON D 837 10:26:15
2646 WEERDESDEYN MAURICE D 838 10:26:17
2647 CASADO VILCHES FRANCISCO D 839 10:26:18
2648 BOUS JOOST D 840 10:26:25
2649 VERPLANCKE JOHAN E 961 10:26:39
2650 SALWAY NICK E 962 10:26:44
2651 FELIX MARTIN E 963 10:26:52
2652 KEERIS ERIK D 841 10:26:54
2653 GEERLING ROBERT E 964 10:26:59
2654 TAMAGNE GILLES E 965 10:27:00
2655 ESTEVEZ HERNANDEZ JAVIER D 842 10:27:09
2656 MUJIKA IMAZ BITTOR D 843 10:27:12
2657 VAN DOORN ANTHONIUS G 53 10:27:14
2658 SENAR IGOA JON ANDER E 966 10:27:14
2659 COULONVAUX JEAN JACQUES E 967 10:27:14
2660 L HOTE PHILIPPE E 968 10:27:17
2661 VAN AERSCHOT LUC E 969 10:27:19
2662 ZAGERS JAN G 54 10:27:19
2663 PLANCHON CHRISTIAN E 970 10:27:23
2664 FESKENS PETER E 971 10:27:30
2665 SOULLIER LIONEL D 844 10:27:31
2666 TODD GEORGE D 845 10:27:45
2667 LOUAH KHATTABI HAMID J 13 10:28:07
2668 VAN DOORN ADRIAAN C 386 10:28:08
2669 DE WILD JOOB E 972 10:28:12
2670 VANDAELE JURGEN C 387 10:28:19
2671 CHIOCANINI CHRISTOPHE D 846 10:28:21
2672 HOEBEN BAS F 349 10:28:25
2673 AALBERS HENK D 847 10:28:30
2674 VD RYT MARTIJN C 388 10:28:31
2675 SEDOMER PETER C 389 10:28:37
2676 GIRARDOT PASCAL D 848 10:28:42
2677 LAMBRIKS JEROEN D 849 10:28:45
2678 ANDONEGUI JON E 973 10:28:47
2679 ALVAREZ JUAN FRANCISCO E 974 10:28:54
2680 VAN HEES RICHARD C 390 10:28:55
2681 JENSEN TINA AB 28 10:28:55
2682 THUIJS FRANK D 850 10:28:58
2683 DEJONGHE WIM E 975 10:29:07
2684 GAAL DAVE D 851 10:29:18
2685 BENI CARLO D 852 10:29:19
2686 ANSOLA AITOR E 976 10:29:20
2687 PAUWELS EDDY F 350 10:29:27
2688 SCHOUKENS REINOUT C 391 10:29:39
2689 ESTALA JUAN RAMON D 853 10:29:50
2690 RUSSELA IAN E 977 10:29:55
2691 VANDEPOEL TIM C 392 10:29:58
2692 MOREIRA MORENO ROBERTO D 854 10:29:59
2693 MORRONE BRUNO D 855 10:30:08
2694 AGTEN GERARD F 351 10:30:12
2695 GARCIA ICHER FELIPE D 856 10:30:14
2696 CANOVA PAOLO D 857 10:30:32
2697 GORDON RICHARD E 978 10:30:37
2698 NEIJLAND MARC D 858 10:30:37
2699 GEERS PIETER D 859 10:30:40
2700 VAN WONDEREN GEERTRUIDA A 19 10:30:42
2701 PINCKERS FRANCIS E 979 10:30:43
2702 COLMAN JOHN E 980 10:30:51
2703 DEN HARTIG PETER E 981 10:31:10
2704 PIETTE YVES C 393 10:31:10
2705 VAN TICHELEN WIM C 394 10:31:19
2706 SANCHEZ MARTINEZ JESUS D 860 10:31:24
2707 LEONARD ALAIN E 982 10:31:29
2708 ACCARDI LORENZO F 352 10:31:30
2709 RUIDAVETS CHRISTOPHE D 861 10:31:47
2710 FLAMING HILAIRE F 353 10:31:59
2711 LAPLAGNE Jean Claude G 55 10:32:01
2712 IBSEN MARIANNE B 3 10:32:13
2713 VAN BREUGEL EDWIN D 862 10:32:15
2714 ROSENBERG CAROLINE AB 29 10:32:19
2715 TEILLOT MARC F 354 10:32:23
2716 MCCRORY GEOFF D 863 10:32:27
2717 D’HULSTER BART D 864 10:32:33
2718 AUSIN JUAN CARLOS D 865 10:32:38
2719 VAN VUURDE MAARTEN D 866 10:32:39
2720 ECKERSALL DAVID E 983 10:32:50
2721 PRECHONNET JEROME D 867 10:33:14
2722 WISSE JAN D 868 10:33:24
2723 KANTARIJIAN BERJ E 984 10:33:25
2724 VERKERK MARIO F 355 10:33:34
2725 BONTE ARNOUT D 869 10:33:36
2726 BRANDSE FRANK F 356 10:33:38
2727 NOLLET FRANS E 985 10:33:41
2728 LOKENBERG ROBERTUS F 357 10:33:43
2729 SCHOUPPE OLIVIER D 870 10:33:47
2730 BLIKI WESLEY D 871 10:33:49
2731 SCHIPPER RONALD E 986 10:33:52
2732 DELMULLE ALAIN E 987 10:34:00
2733 VAN BAUWEL JORGEN E 988 10:34:13
2734 KLUCKEN ARNO E 989 10:34:15
2735 DESGOUTTES PIERRE YVES E 990 10:34:20
2736 BUCKLEY EDGAR D 872 10:34:22
2737 VELTHUIS IWAN D 873 10:34:23
2738 LARSEN VAGN F 358 10:34:25
2739 SUETENS TOM C 395 10:34:37
2740 MOENS ERIC E 991 10:34:47
2741 LOCASTELLO SALVATORE E 992 10:34:47
2742 VAN DORP DENNIS D 874 10:34:48
2743 MARNAS THIERRY E 993 10:34:49
2744 CUEVAS MOLES PACO E 994 10:34:54
2745 VAN DEN BERG JOEP F 359 10:34:57
2746 MALBADI MIKEL D 875 10:35:00
2747 TAYLOR ROGER E 995 10:35:03
2748 ABERSON MARCO D 876 10:35:05
2749 DUBIARD MICHEL E 996 10:35:10
2750 NOEL JEAN-CHRISTOPHE E 997 10:35:24
2751 OSBORNE NICHOLAS D 877 10:35:30
2752 VISSER STELLA A 20 10:35:32
2753 ERRINGTON LUKE D 878 10:35:33
2754 VAN OUWERKERK MARTIN D 879 10:35:36
2755 LAGE HENNY F 360 10:35:38
2756 CANO CAMACHO FRANCISCO JAVIER E 998 10:35:39
2757 DE NEVE AN AB 30 10:35:41
2758 BEVELANOEF NABOTH F 361 10:35:45
2759 SWARTJES ERIC E 999 10:35:53
2760 POSTHUMUS WINFRIED D 880 10:36:00
2761 VAN RIJN DIEDERIK C 396 10:36:01
2762 AZVAREZ PUYEO JUAN BAUTISTA D 881 10:36:05
2763 DULIN JEAN FRANCOIS E 1 000 10:36:07
2764 THOMSEN HENRIK D 882 10:36:33
2765 CHARBONNEL FLORENT C 397 10:36:35
2766 VAN HAEFF JOHN E 1 001 10:36:35
2767 SCHULTE RUDIE E 1 002 10:36:47
2768 JOBSIS METTE A 21 10:36:57
2769 DUARTE PEDRO E 1 003 10:36:58
2770 KUSTERS PETER E 1 004 10:36:58
2771 PLANCHON PIERRE C 398 10:37:05
2772 KNOOPS FRITS G 56 10:37:12
2773 VAN DEN BERG THEODORUS G 57 10:37:12
2774 AERO PETER E 1 005 10:37:13
2775 KERVAREC PIERRE E 1 006 10:37:27
2776 PIRONI MAURICE E 1 007 10:37:34
2777 WOLBERINK RUUD E 1 008 10:37:37
2778 VIAL LAURENT D 883 10:37:44
2779 VAN DER WEYDEN ANNOUK A 22 10:37:45
2780 SCHEERLINCK IGNACE F 362 10:37:51
2781 LAHAYE STEPHAN D 884 10:37:52
2782 MCDERMOTT ANDREW E 1 009 10:37:52
2783 RENAUD JEAN-PIERRE E 1 010 10:37:52
2784 OVERMULDER MARTIJN D 885 10:37:55
2785 VAN DAMME SVEN D 886 10:38:08
2786 VAN DE VELDE JOHN F 363 10:38:09
2787 FERNANDES NICOLAS E 1 011 10:38:14
2788 ALTENA JAN E 1 012 10:38:17
2789 JANJIC TADIJA D 887 10:38:21
2790 BRAIBANT PATRICK F 364 10:38:25
2791 LAROOIJ REMCO D 888 10:38:37
2792 HOLLEMAN PIETER F 365 10:38:38
2793 DE BRUIN EELCO D 889 10:38:38
2794 CLOOSEN HERMAN E 1 013 10:38:42
2795 REYES RAEZ JOSE D 890 10:38:59
2796 BRANDSEMA ANNO F 366 10:39:01
2797 BATTERINK MAARTEN C 399 10:39:02
2798 MADER WILFRIED E 1 014 10:39:25
2799 BOITEUX DOMINIQUE E 1 015 10:39:29
2800 MC GRATH THOMAS D 891 10:39:29
2801 SCHENK DAVE D 892 10:39:30
2802 MOENS NOEL F 367 10:39:31
2803 CAMINADA MAARTEN D 893 10:39:43
2804 GROENENWEGEN MICHEL D 894 10:39:45
2805 DE MOERLOOSE PAUL E 1 016 10:39:53
2806 GARITAGOITIA ENEKOITZ C 400 10:40:04
2807 COMBE PATRICK J 14 10:40:05
2808 HESLINGA DIRK E 1 017 10:40:10
2809 VAN VELTHOVEN RAYMOND E 1 018 10:40:17
2810 DRIESSEN CHRIS G 58 10:40:21
2811 GARRIDO PEDRO H 2 10:40:30
2812 DE MEY LUC E 1 019 10:40:31
2813 VALLE JUAN ANTONIO C 401 10:40:36
2814 VAN DE MAAT GEA A 23 10:40:41
2815 SANDERMAN MARTIN E 1 020 10:40:43
2816 LACK ANDY D 895 10:40:44
2817 CLARAMONTE HORACIC C 402 10:40:46
2818 GONZALVO BOTELLA JOSE VICENTE E 1 021 10:40:48
2819 MATTHEIJ ERIK D 896 10:41:06
2820 DEBOER ALLARD C 403 10:41:07
2821 GOTZ BIRGIT AB 31 10:41:19
2822 HOUSAER EVERT D 897 10:41:20
2823 VETTERS JOS D 898 10:41:24
2824 DOUTRELOIGNE WIM D 899 10:41:32
2825 MARTIN ANDRE F 368 10:41:32
2826 MARIN SANCHEZ ANTONIO E 1 022 10:41:34
2827 VISSER ELS A 24 10:41:36
2828 OWEN DAVID D 900 10:41:51
2829 DE MOOIJ THEO E 1 023 10:41:51
2830 ANDREASEN CARSTEN E 1 024 10:41:53
2831 DE LANGE JOS G 59 10:41:59
2832 MAESSEN MARC D 901 10:42:00
2833 DAVID SEBASTIEN D 902 10:42:09
2834 JENKINS RUSSELL E 1 025 10:42:16
2835 POTTER LEWIS J 15 10:42:19
2836 MICHELUZZI VINCENT C 404 10:42:20
2837 KOENDERS JAN F 369 10:42:21
2838 SEIGLE FERRAND DENIS E 1 026 10:42:26
2839 JACQUES FILIP J 16 10:42:29
2840 CREEMERS RAYMOND E 1 027 10:42:33
2841 VAN GALEN AD F 370 10:42:33
2842 SONNE HANSEN KURT G 60 10:42:42
2843 MAZZUCCHELLI FRANCO E 1 028 10:42:46
2844 VERWIJST MARCEL D 903 10:42:53
2845 HOEKSTRA PIET E 1 029 10:43:01
2846 MADSEN TOM STEVE F 371 10:43:04
2847 DOUCERAIN ANTOINE D 904 10:43:07
2848 LOIZATE ZORION F 372 10:43:12
2849 GYSEMANS ERIC E 1 030 10:43:16
2850 HENDRIKSEN JOS E 1 031 10:43:17
2851 FUGA CHRISTINE AB 32 10:43:25
2852 VOGEL ARJAN F 373 10:43:28
2853 DOMENICO VITIELLO E 1 032 10:43:32
2854 BOUMA FRED F 374 10:43:32
2855 FERNANDEZ SANCHEZ ALFREDO E 1 033 10:43:34
2856 STOKES JAMES D 905 10:43:40
2857 FORTE DANIEL G 61 10:43:43
2858 RICHARDSON MICHAEL E 1 034 10:43:47
2859 NICHOLS PAUL D 906 10:43:47
2860 VAN DER NEUT FRANCK E 1 035 10:43:51
2861 VOGEL KEES E 1 036 10:43:51
2862 CAMERON DUNCAN F 375 10:43:52
2863 VIOLAN ENRIC E 1 037 10:43:57
2864 VAN DER SPEK PAUL E 1 038 10:43:59
2865 HANSEN EDDY E 1 039 10:44:08
2866 RICHARD ROLAND F 376 10:44:09
2867 SLOTH LISBJERG FREDDIE E 1 040 10:44:14
2868 DECRENISSE THIERRY F 377 10:44:21
2869 DOST MIRKO D 907 10:44:26
2870 LEMMINK KOEN E 1 041 10:44:40
2871 VANDERHEYDEN MARC E 1 042 10:44:42
2872 OKUBO NORIAKI D 908 10:44:48
2873 HOONDERT WIM F 378 10:44:51
2874 SCHOCKAERT MARC F 379 10:44:54
2875 PEREZ ALONSO JUAN DAMASO E 1 043 10:44:57
2876 BRABANDER AD E 1 044 10:45:08
2877 HERVY ERIC E 1 045 10:45:11
2878 VAN KETEL ARJAN F 380 10:45:12
2879 MANSBRIDGE SHAUN D 909 10:45:13
2880 STIPHOUT HENNY F 381 10:45:19
2881 GARANCINI SERGE E 1 046 10:45:29
2882 MEERSSCHAERT PATRICK E 1 047 10:45:29
2883 HERMAN MARGOT C 405 10:45:29
2884 DOMINGUEZ MATEOS PABLO MANUEL E 1 048 10:45:31
2885 HENDRIKSEN PETER E 1 049 10:45:32
2886 JOERGEN JENSEN NIELS F 382 10:45:35
2887 WIJNBERGER JAN E 1 050 10:45:35
2888 GOFFAUX DOMINIQUE D 910 10:45:41
2889 PETERS LOEK F 383 10:45:47
2890 STORMBROEK ANDRE D 911 10:45:53
2891 FRENCKEN FRIDO D 912 10:45:53
2892 FARO FENIJN SONJA AB 33 10:46:02
2893 GARCIA FRANCHY NEMESIO F 384 10:46:04
2894 DUNEUFGERMAIN FLORENT D 913 10:46:05
2895 GARCIA VIVIAN E 1 051 10:46:07
2896 CACHO CIRES BRUNO E 1 052 10:46:11
2897 TRIGO AGUSTIN D 914 10:46:14
2898 GARCIA MARIE JOSE AB 34 10:46:16
2899 KEUR WILLIAM F 385 10:46:17
2900 STEENKS RONALD D 915 10:46:18
2901 ARTS FIEKE A 25 10:46:19
2902 CARMELO CURIEL AB 35 10:46:26
2903 SCHEYS OLIVIER D 916 10:46:29
2904 VOLBEDA AARS C 406 10:46:32
2905 MURILLO DAVILA PEDRO E 1 053 10:46:51
2906 GELDHOF PETER D 917 10:46:55
2907 BOULIOU DIDIER E 1 054 10:47:03
2908 ALASTUEY ALBILLOS JOSE RAMON F 386 10:47:07
2909 BERGONZI RICCARDO F 387 10:47:09
2910 VAN DER ALBERT E 1 055 10:47:17
2911 BOENSMA WALTER D 918 10:47:24
2912 GOFFIN GERT F 388 10:47:30
2913 JONCKHERRE PETER E 1 056 10:47:44
2914 DELVER JAN ROBERT F 389 10:47:50
2915 KASSING PATRICK E 1 057 10:47:59
2916 DE RUYLER RON G 62 10:48:02
2917 PLOVIE DIRK E 1 058 10:48:03
2918 BROWN ROBERT C 407 10:48:06
2919 BOISSARD JEAN LUC D 919 10:48:12
2920 SAIZ MUNUERA GABRIEL D 920 10:48:13
2921 KLAVER COR F 390 10:48:16
2922 NIGHTINGALE JAMES E 1 059 10:48:33
2923 DEGAIN DAVE D 921 10:48:36
2924 CASTRO DIAZ JUAN MIGUEL D 922 10:48:42
2925 BUIJSSE WOUTER D 923 10:48:43
2926 KLEEREBEREM ERIK D 924 10:49:00
2927 BRUGGEMAN FILIP E 1 060 10:49:01
2928 RYAN BARRY E 1 061 10:49:05
2929 VANPOUCKE GRIET A 26 10:49:05
2930 VAN GAAL GERARD G 63 10:49:09
2931 GIJBELS RICARDO F 391 10:49:11
2932 CANFORA MASSIMO D 925 10:49:11
2933 DOCHERTY JONATHAN F 392 10:49:17
2934 MAY JAKOB E 1 062 10:49:17
2935 MORRISON ANGUS F 393 10:49:21
2936 AGOSTINI GIANCARLA A 27 10:49:22
2937 EDMONDS DOUG D 926 10:49:24
2938 VAN DISH MARI E 1 063 10:49:30
2939 ALZER FRANCK E 1 064 10:49:37
2940 BOURSET JACQUES F 394 10:49:38
2941 DEN DEKKER HANS C 408 10:49:39
2942 VAN T VEER BAART E 1 065 10:49:40
2943 VANTORRE KURT D 927 10:49:44
2944 SUIK ERIK C 409 10:49:54
2945 SWARTELE MARC E 1 066 10:50:15
2946 CLARKE DAVID E 1 067 10:50:23
2947 SIONNET CHRISTIAN F 395 10:50:25
2948 KOSTER SIERDJAN C 410 10:50:29
2949 D HAENS ALEXANDER D 928 10:50:30
2950 BERKERS LEON E 1 068 10:50:37
2951 FOTHERINGHAM TIM E 1 069 10:50:44
2952 CHESSERON JEAN F 396 10:50:44
2953 MOLINA PEDRO E 1 070 10:50:45
2954 BRAKENHOFF PETER E 1 071 10:50:48
2955 MOUSTEN LARS E 1 072 10:50:52
2956 CAMARA DE DOMINGO JOSE F 397 10:50:56
2957 JACOBS WIM D 929 10:51:00
2958 FABRE FREDERIC E 1 073 10:51:32
2959 ETHERINGTON JOHN F 398 10:51:34
2960 PETIT DIDIER E 1 074 10:51:39
2961 GEUDENS JAN E 1 075 10:51:51
2962 JANSSENS BART D 930 10:51:54
2963 SMIT MARTIJN D 931 10:51:56
2964 ANDOLA OYARBIDE INIGO D 932 10:52:02
2965 HARING HUGO C 411 10:52:06
2966 HOGG DAVID JULIAN E 1 076 10:52:15
2967 KALKMAN ADRIE AB 36 10:52:19
2968 VANLANGENDYCK RONNY D 933 10:52:20
2969 NIJLAND ERIK F 399 10:52:24
2970 THESTRUP FLEMMING E 1 077 10:52:25
2971 DEMOND TONY E 1 078 10:52:26
2972 HARBORD ALEX C 412 10:52:44
2973 BOCQUEZ KURT D 934 10:52:44
2974 VANDENBORRE LUC E 1 079 10:52:56
2975 COBAIN GLENN E 1 080 10:52:58
2976 FORRESTER MARK E 1 081 10:52:58
2977 VERBEEK MARTIEN E 1 082 10:53:05
2978 BARRALON MICHEL E 1 083 10:53:16
2979 HOGLIN CHRISTER F 400 10:53:21
2980 LAMBETH JAMES D 935 10:53:25
2981 ROOM MICHIEL D 936 10:53:32
2982 HICKMAN DAVID F 401 10:53:32
2983 MANWARING SIMON D 937 10:53:47
2984 SCHOTPOORT ANDY E 1 084 10:53:49
2985 BODEWES MARIEN C 413 10:53:50
2986 HARDWICK TOM D 938 10:53:56
2987 KALKMAN HENK E 1 085 10:53:58
2988 HOEKSEMA BART C 414 10:54:02
2989 ZUBELDIA ZURUTUZA JON D 939 10:54:05
2990 ENSING ERIK D 940 10:54:18
2991 PLEYTE A E 1 086 10:54:22
2992 FRENCH JOHN E 1 087 10:54:22
2993 BAKKER AD F 402 10:54:22
2994 SCHOUPPE ROBIN D 941 10:54:33
2995 DUFFIN ANDREW D 942 10:54:35
2996 GAUTRONNEAU J.PAUL G 64 10:54:41
2997 LAMMERS JEROEN C 415 10:54:47
2998 HAVERDINGS ALWIN D 943 10:54:50
2999 PUTS ERIC E 1 088 10:54:50
3000 VERKADE MENNO D 944 10:54:52

Haut 









Haut  
 Área privada   Direitos de autor-Copyright: Clique aqui para ler !